Regional Weather Roundup
Issued by NWS

Home | Current Version | Previous Version | Text Only | Print | Product List | Glossary Off
Versions: 1 2 3 4 5 6 7 8 9 10 11 12 13 14 15 16 17 18 19 20 21 22 23 24 25 26 27 28 29 30 31 32 33 34 35 36 37 38 39 40 41 42 43 44 45 46 47 48 49 50

000
ASUS45 KSLC 250510
RWRUT

UTAH REGIONAL WEATHER ROUNDUP
NATIONAL WEATHER SERVICE SALT LAKE CITY UT
1000 PM MST FRI FEB 24 2017

UTZ001>011-023>025-250600-

NORTHERN UTAH

CITY           SKY/WX    TMP DP  RH WIND       PRES   REMARKS
BRIGHAM CITY     N/A     26  20  79 CALM      30.15S
HILL AFB       CLOUDY    21  11  66 SE9       30.12S WCI  11
LOGAN          PTCLDY    22  16  78 SW6       30.14S WCI  14
OGDEN          CLOUDY    21  13  71 S10       30.13R WCI  10
SALT LAKE CITY PTCLDY    25  14  63 SE7       30.14S WCI  17
TOOELE VALLEY  MOCLDY    25  19  80 S10       30.15S WCI  15
WENDOVER       CLEAR     25  10  54 CALM      30.13S
HEBER CITY     CLEAR      7   1  78 SE3       30.10S
WEST JORDAN    CLEAR     25  21  85 S5        30.14S WCI  19

$$

UTZ011>015-024>027-250600-

CENTRAL/NORTHEAST UTAH

CITY           SKY/WX    TMP DP  RH WIND       PRES   REMARKS
PROVO AIRPORT  CLEAR     13  10  88 S8        30.16S WCI   2
MOAB/CANYONLAN CLEAR     28  10  46 W12       30.09R WCI  18
DELTA          CLEAR     21  14  73 NE3       30.13S
PRICE          PTCLDY    20   8  60 NW3       30.07R
RICHFIELD      CLEAR     18  12  79 CALM      30.15S
ROOSEVELT      CLEAR     19  14  79 SW3       30.11S
VERNAL         MOCLDY    15  10  80 CALM      30.09R

$$

UTZ013>016-019>022-027-250600-

SOUTHERN UTAH

CITY           SKY/WX    TMP DP  RH WIND       PRES   REMARKS
BRYCE CANYON   PTCLDY     1  -4  79 SW5       30.04S WCI  -9
CEDAR CITY     CLEAR     22  10  60 S6        30.07R WCI  14
MILFORD        CLEAR     20  14  77 CALM      30.11R
ST GEORGE      CLEAR     38  17  42 CALM      30.15S
HANKSVILLE     CLEAR     28   3  34 SW3       30.15R
KANAB          CLEAR     25  14  63 NW1       30.15S
BLANDING       CLEAR     21  11  66 NE6       30.13S WCI  13

$$

REGIONAL REPORTS     COLORADO/ARIZONA

CITY           SKY/WX    TMP DP  RH WIND       PRES   REMARKS
CRAIG, CO      CLOUDY    10   5  80 CALM      30.07R
GRAND JUNCTION CLEAR     22  18  85 NE5       30.09S WCI  16
RIFLE, CO      CLOUDY    22  21  96 SW5       30.08R WCI  16
MONTROSE, CO   CLEAR     18  13  80 S8        30.11R WCI   8
CORTEZ, CO     CLEAR     20  15  81 E3        30.08R
COLORADO CITY    N/A     25  18  74 E5        30.14S WCI  19
PAGE, AZ       CLEAR     36  -1  21 W7        30.10R WCI  30
GRAND CANYON   CLEAR     18  13  80 CALM      30.09R
KINGMAN, AZ    CLEAR     31   6  35 E6        30.14R WCI  25
FLAGSTAFF, AZ  CLEAR     25  12  58 SW7       30.09R WCI  17

$$

REGIONAL REPORTS    NEVADA/IDAHO/WYOMING

CITY           SKY/WX    TMP DP  RH WIND       PRES   REMARKS
LAS VEGAS, NV  PTCLDY    46  12  25 E6        30.12R
ELY, NY        CLEAR      4  -1  80 MISG      30.06R
ELKO, NV       CLEAR     22  11  62 NE6       30.07F WCI  14
POCATELLO, ID  CLEAR     16   7  67 S9        30.13S WCI   4
BURLEY, ID     MOCLDY    22  10  60 SW10      30.12R WCI  11
FORT BRIDGER,    N/A     10   4  79 SW14      30.05S WCI  -6
EVANSTON, WY   CLOUDY     9   2  73 S7        30.03R WCI  -2
ROCK SPRINGS,  CLEAR     10   3  73 SW14      30.00S WCI  -6

$$



USA.gov is the U.S. government's official web portal to all federal, state and local government web resources and services.